When you browse on this site, cookies collect data to enhance your experience and personalize the content and advertising you see.
Visit our Privacy Policy to learn more. By continuing to use the site, you agree to this use of cookies and data.
  • In Hungary
  • List of Countries
  • For 7 days
  • Water Temperature
  • Satellite Maps
  • Weather Map
  • News
  • Weather Widgets
  • user-avatar
    Login

    Hourly Weather Liberal

    Today, 19 February, Tuesday

    Time Temperature Precipitation Wind Pressure Humidity
    00:00 -9°C° 0 mm 4 mps 692 mmHg 59%
    01:00 -9°C° 0 mm 4 mps 692 mmHg 62%
    02:00 -10°C° 0 mm 4 mps 691 mmHg 66%
    03:00 -10°C° 0 mm 4 mps 691 mmHg 67%
    04:00 -10°C° 0 mm 4 mps 691 mmHg 67%
    05:00 -10°C° 0 mm 4 mps 690 mmHg 68%
    06:00 -10°C° 0 mm 4 mps 690 mmHg 67%
    07:00 -10°C° 0 mm 4 mps 690 mmHg 66%
    08:00 -9°C° 0 mm 4 mps 690 mmHg 65%
    09:00 -8°C° 0 mm 4 mps 689 mmHg 62%
    10:00 -7°C° 0 mm 4 mps 689 mmHg 59%
    11:00 -5°C° 0 mm 4 mps 688 mmHg 57%
    12:00 -4°C° 0 mm 4 mps 687 mmHg 54%
    13:00 -2°C° 0 mm 4 mps 686 mmHg 50%
    14:00 -1°C° 0 mm 4 mps 685 mmHg 47%
    15:00 -2°C° 0 mm 4 mps 685 mmHg 50%
    16:00 -2°C° 0 mm 5 mps 684 mmHg 53%
    17:00 -2°C° 0 mm 5 mps 683 mmHg 56%
    18:00 -5°C° 0 mm 5 mps 683 mmHg 67%
    19:00 -5°C° 0 mm 4 mps 683 mmHg 77%
    20:00 -7°C° 0 mm 4 mps 682 mmHg 87%
    21:00 -7°C° 0 mm 4 mps 682 mmHg 87%
    22:00 -7°C° 0 mm 4 mps 682 mmHg 88%
    23:00 -6°C° 0 mm 3 mps 681 mmHg 88%

    Tomorrow, 20 February, Wednesday

    Time Temperature Precipitation Wind Pressure Humidity
    00:00 -6°C° 0 mm 3 mps 681 mmHg 88%
    01:00 -6°C° 0 mm 3 mps 680 mmHg 89%
    02:00 -6°C° 0 mm 3 mps 679 mmHg 89%
    03:00 -6°C° 0 mm 3 mps 679 mmHg 88%
    04:00 -6°C° 0 mm 3 mps 678 mmHg 87%
    05:00 -5°C° 0 mm 4 mps 678 mmHg 85%
    06:00 -5°C° 0 mm 4 mps 678 mmHg 80%
    07:00 -4°C° 0 mm 4 mps 679 mmHg 75%
    08:00 -3°C° 0 mm 4 mps 679 mmHg 70%
    09:00 -2°C° 0 mm 5 mps 680 mmHg 65%
    10:00 -1°C° 0 mm 5 mps 680 mmHg 60%
    11:00 -1°C° 0 mm 6 mps 681 mmHg 55%
    12:00 +1°C° 0 mm 4 mps 681 mmHg 51%
    13:00 +3°C° 0 mm 3 mps 681 mmHg 47%
    14:00 +5°C° 0 mm 2 mps 681 mmHg 43%
    15:00 +4°C° 0 mm 2 mps 681 mmHg 45%
    16:00 +5°C° 0 mm 1 mps 681 mmHg 46%
    17:00 +4°C° 0 mm 1 mps 681 mmHg 48%
    18:00 +2°C° 0 mm 2 mps 681 mmHg 51%
    19:00 +1°C° 0 mm 3 mps 681 mmHg 53%
    20:00 -1°C° 0 mm 4 mps 681 mmHg 56%
    21:00 -2°C° 0 mm 4 mps 682 mmHg 59%
    22:00 -2°C° 0 mm 5 mps 682 mmHg 63%
    23:00 -3°C° 0 mm 6 mps 682 mmHg 67%

    Day after tomorrow, 21 February, Thursday

    Time Temperature Precipitation Wind Pressure Humidity
    00:00 -4°C° 0 mm 6 mps 682 mmHg 70%
    01:00 -4°C° 0 mm 6 mps 682 mmHg 73%
    02:00 -4°C° 0 mm 6 mps 682 mmHg 77%
    03:00 -4°C° 0 mm 6 mps 682 mmHg 76%
    04:00 -5°C° 0 mm 5 mps 682 mmHg 76%
    05:00 -5°C° 0 mm 5 mps 682 mmHg 76%
    06:00 -4°C° 0 mm 5 mps 683 mmHg 71%
    07:00 -2°C° 0 mm 5 mps 683 mmHg 66%
    08:00 -2°C° 0 mm 6 mps 683 mmHg 62%
    09:00 +2°C° 0 mm 6 mps 683 mmHg 49%
    10:00 +5°C° 0 mm 7 mps 683 mmHg 37%
    11:00 +9°C° 0 mm 7 mps 683 mmHg 24%
    12:00 +10°C° 0 mm 8 mps 683 mmHg 24%
    13:00 +12°C° 0 mm 8 mps 682 mmHg 24%
    14:00 +13°C° 0 mm 9 mps 681 mmHg 24%
    15:00 +12°C° 0 mm 9 mps 681 mmHg 27%
    16:00 +12°C° 0 mm 8 mps 681 mmHg 30%
    17:00 +11°C° 0 mm 8 mps 681 mmHg 34%
    18:00 +9°C° 0 mm 8 mps 681 mmHg 39%
    19:00 +7°C° 0 mm 8 mps 681 mmHg 44%
    20:00 +6°C° 0 mm 8 mps 682 mmHg 49%
    21:00 +5°C° 0 mm 8 mps 682 mmHg 52%
    22:00 +5°C° 0 mm 7 mps 682 mmHg 55%
    23:00 +4°C° 0 mm 7 mps 682 mmHg 57%

    22 February, Friday

    Time Temperature Precipitation Wind Pressure Humidity
    00:00 +3°C° 0 mm 6 mps 682 mmHg 61%
    01:00 +3°C° 0 mm 6 mps 682 mmHg 64%
    02:00 +2°C° 0 mm 5 mps 682 mmHg 68%
    03:00 +2°C° 0 mm 5 mps 682 mmHg 74%
    04:00 +2°C° 0 mm 5 mps 682 mmHg 80%
    05:00 +1°C° 0 mm 5 mps 682 mmHg 86%
    06:00 +2°C° 0 mm 6 mps 682 mmHg 86%
    07:00 +3°C° 0 mm 7 mps 683 mmHg 87%
    08:00 +4°C° 0 mm 7 mps 683 mmHg 87%
    09:00 +6°C° 0 mm 7 mps 683 mmHg 78%
    10:00 +9°C° 0 mm 8 mps 683 mmHg 69%
    11:00 +11°C° 0 mm 8 mps 683 mmHg 60%
    12:00 +13°C° 0 mm 8 mps 682 mmHg 46%
    13:00 +16°C° 0 mm 9 mps 681 mmHg 33%
    14:00 +18°C° 0 mm 10 mps 681 mmHg 19%
    15:00 +18°C° 0 mm 9 mps 681 mmHg 21%
    16:00 +17°C° 0 mm 7 mps 680 mmHg 22%
    17:00 +16°C° 0 mm 6 mps 680 mmHg 23%
    18:00 +14°C° 0 mm 7 mps 680 mmHg 38%
    19:00 +11°C° 0 mm 7 mps 680 mmHg 54%
    20:00 +9°C° 0 mm 8 mps 680 mmHg 69%
    21:00 +9°C° 0.2 mm 8 mps 680 mmHg 76%
    22:00 +9°C° 0.2 mm 7 mps 679 mmHg 83%
    23:00 +9°C° 0.2 mm 7 mps 679 mmHg 90%

    23 February, Saturday

    Time Temperature Precipitation Wind Pressure Humidity
    00:00 +9°C° 0.3 mm 7 mps 679 mmHg 87%
    01:00 +9°C° 0.3 mm 6 mps 679 mmHg 84%
    02:00 +9°C° 0.3 mm 6 mps 679 mmHg 81%
    03:00 +8°C° 0.1 mm 5 mps 678 mmHg 76%
    04:00 +8°C° 0.1 mm 3 mps 678 mmHg 71%
    05:00 +8°C° 0.1 mm 2 mps 677 mmHg 65%
    06:00 +8°C° 0.1 mm 3 mps 678 mmHg 64%
    07:00 +8°C° 0.1 mm 3 mps 678 mmHg 64%
    08:00 +8°C° 0.1 mm 3 mps 678 mmHg 63%
    09:00 +5°C° 0.1 mm 6 mps 679 mmHg 64%
    10:00 +4°C° 0.1 mm 8 mps 679 mmHg 64%
    11:00 +2°C° 0.1 mm 11 mps 679 mmHg 64%
    12:00 +2°C° 0.1 mm 10 mps 680 mmHg 57%
    13:00 +3°C° 0.1 mm 10 mps 680 mmHg 49%
    14:00 +5°C° 0.1 mm 10 mps 681 mmHg 42%
    15:00 +5°C° 0 mm 8 mps 681 mmHg 37%
    16:00 +5°C° 0 mm 6 mps 681 mmHg 32%
    17:00 +6°C° 0 mm 4 mps 682 mmHg 28%
    18:00 +5°C° 0 mm 4 mps 682 mmHg 30%
    19:00 +4°C° 0 mm 3 mps 683 mmHg 33%
    20:00 +2°C° 0 mm 3 mps 683 mmHg 36%
    21:00 +2°C° 0 mm 3 mps 683 mmHg 38%
    22:00 +2°C° 0 mm 2 mps 684 mmHg 40%
    23:00 +1°C° 0 mm 2 mps 684 mmHg 42%

    24 February, Sunday

    Time Temperature Precipitation Wind Pressure Humidity
    00:00 -1°C° 0 mm 2 mps 685 mmHg 42%
    01:00 -1°C° 0 mm 2 mps 685 mmHg 43%
    02:00 +1°C° 0 mm 1 mps 685 mmHg 43%
    03:00 +1°C° 0 mm 1 mps 685 mmHg 43%
    04:00 0°C° 0 mm 1 mps 686 mmHg 44%
    05:00 0°C° 0 mm 1 mps 686 mmHg 44%
    06:00 +2°C° 0 mm 1 mps 686 mmHg 40%
    07:00 +3°C° 0 mm 1 mps 687 mmHg 36%
    08:00 +4°C° 0 mm 2 mps 687 mmHg 32%
    09:00 +5°C° 0 mm 3 mps 688 mmHg 29%
    10:00 +7°C° 0 mm 4 mps 688 mmHg 26%
    11:00 +10°C° 0 mm 4 mps 688 mmHg 24%
    12:00 +10°C° 0 mm 5 mps 687 mmHg 23%
    13:00 +12°C° 0 mm 5 mps 686 mmHg 22%
    14:00 +12°C° 0 mm 5 mps 686 mmHg 22%
    15:00 +11°C° 0 mm 4 mps 685 mmHg 26%
    16:00 +11°C° 0 mm 4 mps 685 mmHg 30%
    17:00 +10°C° 0 mm 3 mps 684 mmHg 34%
    18:00 +7°C° 0 mm 4 mps 685 mmHg 38%
    19:00 +6°C° 0 mm 4 mps 685 mmHg 41%
    20:00 +5°C° 0 mm 4 mps 685 mmHg 45%
    21:00 +5°C° 0 mm 4 mps 685 mmHg 49%
    22:00 +4°C° 0 mm 4 mps 685 mmHg 52%
    23:00 +4°C° 0 mm 4 mps 685 mmHg 56%
    Show more